Location: Unspecified
(0.0000°N, 0.0000°E)
Time: 03:10:42
(UTC+00:00)

CZ-3C DEB - Pass Details

Date: 15 February 2026
Orbit: 610 x 36841 km, 20.5° (Epoch: 4 October)

Event Time Altitude Azimuth Distance (km) Brightness Sun altitude
Exits shadow 03:00:30 40° 86° (E) 2,082 ? -46.9°
Drops below altitude 10° 03:12:07 10° 72° (ENE) 7,178 ? -44.1°
Sets 03:26:11 0° 70° (ENE) 12,330 ? -40.7°
